Aeroporto :
LOGIN :

Iscrizione | Disclaimer

   EN    FR    IT 

 










Sommario :    VFR   VFR Marginale   IFR   IFR Intensivo   IFR Molto Intensivo
Visibilità : 
Base nubi : 
>= 8 km
>= 3000ft
5 / 8 km
1000 / 3000 ft
1500m / 5 km
500 / 1000 ft
800 / 1500m
200 / 500 ft
< 800m
< 200 ft
Simboli :   Temporali  Nebbia  Neve Forte  Precipitazioni Forti  Vento > 20 kt
SIGMETs :   Varie  Temporali  Ghiacco  Turbolenza  Onda orograficha  Ceneri Vulcaniche






- Altitudine del aeroporto : 3006 ft
- Codice IATA : LEN


LELN - Leon

ULTIMO METAR :
  • 250230Z AUTO 30006KT CAVOK 11/08 Q1027

METARs OBSOLETI :
  • 250200Z AUTO 30006KT 270V330 CAVOK 11/08 Q1027
  • 250130Z AUTO 26003KT CAVOK 11/09 Q1027
  • 250100Z AUTO 25003KT 230V300 CAVOK 12/09 Q1027
  • 250030Z AUTO VRB02KT CAVOK 13/10 Q1027
  • 250000Z AUTO 27003KT 230V300 CAVOK 14/10 Q1027

TAF TAF LELN
Valido dal 25 a 03 ore il 25 a 12 ore UTC


250200Z 2503/2512 VRB05KT CAVOK
PROB30
TEMPO 2510/2512 SCT025TCU



MetMap, La meteo Aeronautica in un colpo d'occhio ! - Copyright ORBIFLY Dicembre 2007 - Disclaimer

ORBIFLY MET'MAP TEAM :

Programmazione e sviluppo : Alexandra Zaïnal
Concezione : Baudouin d'Aumeries
Aiuto per la programmazione : Marc-Olivier Méhu
Supporto tecnico e logistico : Manuel Goepfert
Aiuto per la traduzione : Arnaldo La Scala

Contatto : metmap@orbifly.com




FONTI E CREDITI :

   NOAA